Regional Weather Roundup
Issued by NWS

Home | Current Version | Previous Version | Text Only | Print | Product List | Glossary On
Versions: 1 2 3 4 5 6 7 8 9 10 11 12 13 14 15 16 17 18 19 20 21 22 23 24 25 26 27 28 29 30 31 32 33 34 35 36 37 38 39 40 41 42 43 44 45 46 47 48 49 50
000
ASUS43 KLSX 201907
RWRMO

WEATHER SUMMARY FOR MISSOURI
NATIONAL WEATHER SERVICE SPRINGFIELD MO
100 PM CST THU NOV 20 2014

NOTE: "FAIR" INDICATES FEW OR NO CLOUDS BELOW 12,000 FEET WITH NO
       SIGNIFICANT WEATHER AND/OR OBSTRUCTIONS TO VISIBILITY.
       CURRENT SKY AND/OR WEATHER CONDITIONS ARE NOT AVAILABLE FOR
       CHILLICOTHE AND FARMINGTON.

MOZ001>031-035>038-043-044-053-054-202000-
...NORTHERN AND WESTERN MISSOURI...

CITY           SKY/WX    TMP DP  RH WIND       PRES   REMARKS
KANSAS CTY INT MOSUNNY   36  18  48 VRB3      30.21F
KANSAS C DTWN  SUNNY     39  18  42 N7        30.22F
LEE`S SUMMIT   SUNNY     37  18  46 NE3       30.21F
ST JOSEPH      SUNNY     36  17  46 N9        30.24F WCI  29
CHILLICOTHE      N/A     35  16  45 NW7       30.24F WCI  29
KIRKSVILLE     SUNNY     33  17  51 W10       30.21S WCI  25

$$
MOZ066>068-077>081-088>096-101>105-202000-
...SOUTHWEST MISSOURI...

CITY           SKY/WX    TMP DP  RH WIND       PRES   REMARKS
SPRINGFIELD    SUNNY     46  20  35 MISG      30.16F
JOPLIN         SUNNY     48  24  39 E9        30.16F

$$
MOZ032>034-039>042-045>050-055>058-069>072-202000-
...CENTRAL MISSOURI...

CITY           SKY/WX    TMP DP  RH WIND       PRES   REMARKS
COLUMBIA       SUNNY     37  17  44 W8        30.21F
JEFFERSON CITY SUNNY     38  18  44 NW5       30.23F
ROLLA          SUNNY     38  19  46 NW8       30.18F
SEDALIA        SUNNY     39  19  44 N7        30.22F
WHITEMAN AFB   SUNNY     38  18  44 N8        30.21F
WARRENSBURG    SUNNY     37  19  48 N6        30.22F
OSAGE BEACH    SUNNY     39  19  45 CALM      30.20F

$$
MOZ051-052-059>065-202000-
...EAST CENTRAL MISSOURI...

CITY           SKY/WX    TMP DP  RH WIND       PRES   REMARKS
ST LOUIS INTL  MOSUNNY   38  18  44 W9        30.21F
SPIRIT OF STL  CLOUDY    34  18  52 SW8       30.21F WCI  27
ST CHARLES     SUNNY     35  18  49 NW9       30.21F WCI  28

$$
MOZ072>076-082>087-097>100-106>115-202000-
...SOUTH CENTRAL AND SOUTHEAST MISSOURI...

CITY           SKY/WX    TMP DP  RH WIND       PRES   REMARKS
CAPE GIRARDEAU SUNNY     38  21  50 VRB5      30.24F
FARMINGTON     SUNNY     39  19  45 W5        30.21F
POPLAR BLUFF   SUNNY     43  21  41 SW9       30.23F
WEST PLAINS    SUNNY     47  19  33 VRB3      30.19F

$$


USA.gov is the U.S. government's official web portal to all federal, state and local government web resources and services.